Kaneohe MCBH, HI

8:20 AM HST on April 28, 2017 (GMT -1000)
Kaneohe Bay Marine Corps Air Facility

Weather History for PHNG - November, 2012

Change the Weather History Date:

Friday, November 16, 2012

  Actual Average Record
Temperature  
Mean Temperature 76 °F -  
Max Temperature 80 °F 78 °F 84 °F (1996)
Min Temperature 73 °F 70 °F 66 °F (2001)
Cooling Degree Days 12    
Growing Degree Days 26 (Base 50)    
Moisture  
Dew Point 64 °F    
Average Humidity 68    
Maximum Humidity 78    
Minimum Humidity 51    
Precipitation  
Precipitation 0.00 in - - ()
Sea Level Pressure  
Sea Level Pressure 30.08 in    
Wind  
Wind Speed 9 mph (ENE)    
Max Wind Speed 15 mph    
Max Gust Speed 24 mph    
Visibility 10 miles    
Events Rain    
Averages and records for this station are not official NWS values.
T = Trace of Precipitation, MM = Missing Value Source: NWS Daily Summary

Daily Weather History Graph

Daily Weather History Graph

Search for Another Location

Airport or City:

Trip Planner

Search our weather history database for the weather conditions in past years. The results will help you decide how hot, cold, wet, or windy it might be!

Date:

Astronomy

Nov. 16, 2012 Rise Set
Actual Time 6:43 AM HST 5:48 PM HST
Civil Twilight 6:19 AM HST 6:12 PM HST
Nautical Twilight 5:52 AM HST 6:39 PM HST
Astronomical Twilight 5:25 AM HST 7:05 PM HST
Moon 9:42 AM HST (11/16) 9:04 PM HST (11/16)
Length of Visible Light 11h 52m
Length of Day
11h 05m
Waxing Crescent, 13% of the Moon is Illuminated
Nov 16
Waxing Crescent
Nov 20
First Quarter
Nov 28
Full
Dec 6
Last Quarter
Dec 12
New

Hourly Weather History & Observations

Time (HST) Temp. Heat Index Dew Point Humidity Pressure Visibility Wind Dir Wind Speed Gust Speed Precip Events Conditions
12:57 AM 73.4 °F - 64.8 °F 74% 30.10 in 10.0 mi East 6.9 mph - 0.00 in   Overcast
1:57 AM 73.4 °F - 64.8 °F 74% 30.09 in 10.0 mi Variable 3.5 mph 16.1 mph 0.00 in Rain Light Rain
2:57 AM 73.4 °F - 66.0 °F 78% 30.07 in 10.0 mi East 11.5 mph 20.7 mph 0.00 in   Overcast
3:57 AM 73.4 °F - 66.0 °F 78% 30.07 in 10.0 mi ENE 6.9 mph - 0.00 in Rain Light Rain
4:57 AM 73.4 °F - 64.0 °F 72% 30.06 in 10.0 mi East 9.2 mph 24.2 mph 0.00 in Rain Light Rain
5:57 AM 73.4 °F - 63.0 °F 70% 30.07 in 10.0 mi East 11.5 mph 24.2 mph 0.00 in   Scattered Clouds
6:57 AM 73.4 °F - 64.8 °F 74% 30.09 in 10.0 mi East 9.2 mph 21.9 mph N/A   Scattered Clouds
7:57 AM 73.4 °F - 64.4 °F 73% 30.11 in 10.0 mi ENE 9.2 mph 16.1 mph 0.00 in   Overcast
8:57 AM 73.4 °F - 64.4 °F 73% 30.13 in 10.0 mi ENE 13.8 mph 21.9 mph N/A   Mostly Cloudy
9:57 AM 75.2 °F - 64.9 °F 70% 30.13 in 10.0 mi East 15.0 mph 24.2 mph 0.00 in Rain Light Rain
10:57 AM 75.2 °F - 64.9 °F 70% 30.12 in 10.0 mi East 11.5 mph 23.0 mph 0.00 in   Mostly Cloudy
11:57 AM 78.8 °F - 66.0 °F 65% 30.10 in 10.0 mi ENE 11.5 mph 18.4 mph 0.00 in   Mostly Cloudy
12:57 PM 78.8 °F - 64.0 °F 60% 30.07 in 10.0 mi ENE 13.8 mph 21.9 mph 0.00 in   Scattered Clouds
1:57 PM 80.6 °F 81.5 °F 61.0 °F 51% 30.04 in 10.0 mi ENE 13.8 mph 20.7 mph N/A   Scattered Clouds
2:57 PM 80.6 °F 81.7 °F 62.1 °F 53% 30.04 in 10.0 mi ENE 10.4 mph 21.9 mph N/A   Scattered Clouds
3:57 PM 80.6 °F 81.7 °F 62.1 °F 53% 30.04 in 10.0 mi ENE 13.8 mph 18.4 mph N/A   Scattered Clouds
4:57 PM 75.2 °F - 64.0 °F 68% 30.06 in 10.0 mi ENE 9.2 mph - N/A   Mostly Cloudy
5:57 PM 75.2 °F - 64.0 °F 68% 30.06 in 10.0 mi ENE 11.5 mph 16.1 mph N/A   Mostly Cloudy
6:57 PM 75.2 °F - 64.0 °F 68% 30.07 in 10.0 mi ENE 11.5 mph 17.3 mph N/A   Scattered Clouds
7:57 PM 75.2 °F - 63.0 °F 66% 30.09 in 10.0 mi ENE 9.2 mph 19.6 mph N/A   Partly Cloudy
8:57 PM 75.2 °F - 64.9 °F 70% 30.10 in 10.0 mi ENE 10.4 mph 19.6 mph N/A   Scattered Clouds
9:57 PM 75.2 °F - 64.9 °F 70% 30.10 in 10.0 mi ENE 9.2 mph 18.4 mph N/A   Scattered Clouds
10:57 PM 75.2 °F - 64.9 °F 70% 30.09 in 10.0 mi ENE 6.9 mph 17.3 mph N/A   Partly Cloudy
11:57 PM 75.2 °F - 66.0 °F 73% 30.08 in 10.0 mi ENE 8.1 mph - N/A   Scattered Clouds